Grizzly Air Cargo 5288


KDEN
Denver International Airport
Denver, Colorado, US
CYEG
Edmonton International Airport
Edmonton, , CA

Activity Log

Date Flight Route Aircraft Duration
12/23/2019 GRZ5288 RIKKK4 FISAR KU12U GGW YEA CAMRA IGSOX2 B738 2h 31m
09/24/2019 GRZ524 RIKKK4 FISAR KU12U GGW YEA CAMRA IGSOX2 B738 2h 50m

Route Details

Aircraft Information
Primary: Boeing 737-800BCF
Backup: Boeing 727-200F
Route Data
Distance: 887nm
Sched. Duration: 2h 58m
Avg. Duration: 2h 41m (-18m)
Times Flown: 2
Recm'd Route: RIKKK4 FISAR KU12U GGW YEA CAMRA IGSOX2
Planned Altitude: 34,000ft
Origin Wx: KDEN 291353Z 21013KT 10SM FEW160 FEW220 02/M03 A3019 RMK AO2 SLP220 T00221028
Dest. Wx: CYEG 291400Z 28003KT 20SM SCT060 BKN110 BKN180 M03/M03 A2985 RMK SC4AC2AC1 PRESRR SLP143
Notes:

Financial History
Total Freight: 54,912lbs
Average Load: 27,456lbs/flt
Fuel Used: 26,477lbs
Avg. Fuel Used: 13,239lbs/flt
Fuel Expense: $28,595
Avg. Fuel Expense: $14,298
Avg. Fuel Cost: $1.08/lbs
Total Gross Income: $81,639
Pilot Pay: $308
Total Expenses: $8,921
Total Revenue: $43,237
Average Revenue: $40,819.68